EW9763 Weather Reports


Display with metric or nautical units.
time (UTC)temp
F
wind
direction
speed
MPH
gust
MPH
rain 1hr
in
rain 24hr
in
rain mn
in
humidity
%
barometer
mb
20260904135321 68 182 4.0 10.0 0.00 1.37 0.92 98 1013.1
20260904135053 68 182 3.0 9.0 0.00 1.37 0.92 98 1012.7
20260904134318 68 154 2.0 6.0 0.00 1.37 0.92 98 1012.6
20260904133817 68 159 3.0 9.0 0.00 1.37 0.92 98 1012.8
20260904133319 68 171 3.0 9.0 0.00 1.37 0.92 98 1012.9
20260904132817 68 186 3.0 9.0 0.00 1.37 0.92 98 1013.1
20260904132316 68 162 2.0 9.0 0.00 1.37 0.92 98 1013.3
20260904131818 68 162 3.0 10.0 0.00 1.37 0.92 98 1013.3
20260904131313 68 185 6.0 11.0 0.00 1.37 0.92 98 1013.3
20260904130813 68 205 6.0 13.0 0.00 1.37 0.92 98 1013.4
20260904130314 68 163 5.0 13.0 0.00 1.37 0.92 98 1013.4
20260904125813 68 202 5.0 10.0 0.00 1.37 0.92 98 1013.7
20260904125313 68 165 4.0 11.0 0.00 1.37 0.92 98 1013.5
20260904124815 68 165 5.0 15.0 0.00 1.37 0.92 98 1013.5
20260904124309 68 165 7.0 15.0 0.00 1.37 0.92 98 1013.6
20260904124041 68 175 5.0 14.0 0.00 1.37 0.92 98 1013.7
20260904123310 68 186 4.0 9.0 0.00 1.37 0.92 98 1013.2
20260904122810 68 157 4.0 9.0 0.01 1.37 0.92 98 1012.6
20260904122309 68 131 6.0 11.0 0.06 1.37 0.92 98 1012.4
20260904121810 68 134 6.0 11.0 0.07 1.37 0.92 98 1012.6
20260904121306 68 135 6.0 14.0 0.07 1.37 0.92 98 1012.8
20260904120805 68 137 7.0 14.0 0.08 1.37 0.92 98 1012.5
20260904120536 68 135 5.0 11.0 0.08 1.37 0.92 98 1012.5
20260904115805 68 174 6.0 14.0 0.08 1.37 0.92 98 1013.2
20260904115306 68 158 6.0 14.0 0.08 1.37 0.92 98 1012.9
20260904114806 68 157 6.0 14.0 0.08 1.37 0.92 98 1012.8
20260904114305 68 140 5.0 14.0 0.09 1.37 0.92 98 1012.9
20260904113803 68 157 6.0 15.0 0.10 1.37 0.92 98 1012.8
20260904113303 68 162 7.0 15.0 0.11 1.37 0.92 98 1012.8
20260904112802 69 134 7.0 12.0 0.12 1.36 0.91 98 1012.8
20260904112305 69 181 6.0 13.0 0.08 1.31 0.87 98 1013.1
20260904111804 69 139 5.0 14.0 0.11 1.30 0.85 98 1013.2
20260904111531 69 159 6.0 14.0 0.19 1.30 0.85 98 1013.2
20260904110802 69 143 6.0 15.0 0.30 1.29 0.84 98 1013.2
20260904110259 69 137 5.0 15.0 0.31 1.29 0.84 98 1013.5
20260904105758 69 167 4.0 11.0 0.31 1.29 0.84 98 1013.8
20260904105530 69 169 3.0 7.0 0.31 1.29 0.84 98 1013.5
20260904104759 69 136 4.0 11.0 0.31 1.29 0.84 98 1013.5
20260904104259 69 119 5.0 11.0 0.31 1.28 0.83 98 1013.0
20260904103754 69 131 4.0 10.0 0.30 1.27 0.82 98 1012.8
20260904103253 69 136 5.0 10.0 0.29 1.26 0.81 98 1013.1
20260904102752 69 121 5.0 11.0 0.27 1.24 0.79 98 1013.1
20260904102251 69 130 5.0 11.0 0.27 1.23 0.78 98 1013.1
20260904101751 69 143 5.0 11.0 0.23 1.19 0.75 98 1013.0
20260904101249 69 133 5.0 11.0 0.17 1.11 0.66 98 1013.2
20260904100747 69 137 5.0 10.0 0.09 0.98 0.54 98 1013.5
20260904100245 69 188 5.0 10.0 0.15 0.98 0.53 98 1013.8
20260904095746 69 134 5.0 9.0 0.21 0.98 0.53 98 1013.1
20260904095245 70 102 5.0 8.0 0.26 0.98 0.53 98 1013.1
20260904095017 70 126 5.0 10.0 0.32 0.98 0.53 98 1013.1
20260904094245 70 113 3.0 10.0 0.31 0.97 0.52 98 1013.1
20260904094015 70 68 2.0 6.0 0.32 0.97 0.52 98 1013.6
20260904093514 70 95 1.0 4.0 0.33 0.97 0.52 98 1013.4
20260904092740 70 182 2.0 4.0 0.34 0.97 0.52 98 1013.6
20260904092242 70 5 2.0 7.0 0.33 0.96 0.51 98 1013.2
20260904091740 70 130 3.0 7.0 0.33 0.96 0.51 98 1013.0
20260904091240 70 132 3.0 6.0 0.31 0.94 0.50 98 1012.6
20260904090741 70 88 3.0 8.0 0.26 0.89 0.45 98 1012.4
20260904090735 70 0 5.0 9.0 0.19 0.82 0.38 98 1013.6
20260904085732 70 92 4.0 9.0 0.14 0.77 0.33 98 1012.5
20260904085233 70 100 1.0 8.0 0.10 0.72 0.28 98 1012.4
20260904084732 70 342 1.0 4.0 0.04 0.66 0.22 98 1013.3
20260904084230 70 342 2.0 5.0 0.06 0.66 0.21 97 1013.4
20260904083732 70 323 3.0 5.0 0.06 0.64 0.20 97 1013.4
20260904083228 70 21 4.0 6.0 0.08 0.64 0.19 97 1012.9
20260904082726 70 5 3.0 6.0 0.10 0.63 0.18 98 1013.5
20260904082224 70 55 1.0 4.0 0.11 0.63 0.18 98 1013.0
20260904081725 70 57 1.0 4.0 0.11 0.63 0.18 98 1012.7
20260904081457 70 5 3.0 8.0 0.12 0.63 0.18 97 1012.1
20260904080725 70 345 4.0 8.0 0.12 0.63 0.18 98 1012.3
20260904080218 70 5 3.0 6.0 0.12 0.63 0.18 98 1012.0
20260904075718 70 94 3.0 7.0 0.12 0.63 0.18 97 1011.9
20260904075219 70 82 5.0 11.0 0.12 0.62 0.17 97 1011.4
20260904074718 70 111 6.0 11.0 0.13 0.62 0.17 97 1011.5
20260904074218 70 133 3.0 10.0 0.12 0.60 0.15 97 1011.7
20260904073719 70 65 3.0 8.0 0.11 0.58 0.13 97 1012.3
20260904073213 70 355 2.0 8.0 0.09 0.56 0.11 97 1012.4
20260904072712 70 29 1.0 3.0 0.07 0.53 0.10 97 1012.5
20260904072208 70 344 2.0 4.0 0.07 0.52 0.07 97 1013.4
20260904071707 70 344 2.0 4.0 0.07 0.52 0.07 97 1013.3
20260904071208 70 342 2.0 8.0 0.06 0.51 0.06 97 1013.1
20260904070702 70 324 4.0 8.0 0.06 0.51 0.06 97 1013.2
20260904070201 70 307 4.0 8.0 0.06 0.51 0.06 97 1012.9
20260904065700 70 46 4.0 8.0 0.06 0.51 0.06 97 1012.2
20260904065201 70 122 4.0 8.0 0.05 0.50 0.05 97 1012.1
20260904064700 70 140 4.0 9.0 0.04 0.49 0.04 97 1011.9
20260904064201 70 161 5.0 9.0 0.03 0.48 0.03 97 1012.3
20260904063656 70 198 4.0 9.0 0.02 0.47 0.02 97 1012.6
20260904063154 70 120 4.0 10.0 0.02 0.47 0.02 97 1012.3
20260904062655 70 169 6.0 11.0 0.01 0.46 0.01 97 1011.7
20260904062155 70 138 6.0 11.0 0.00 0.45 0.00 97 1011.9
20260904061654 70 129 6.0 11.0 0.00 0.45 0.00 97 1012.1
20260904061155 69 128 4.0 11.0 0.00 0.45 0.00 97 1012.3
20260904060650 70 165 4.0 10.0 0.00 0.45 0.00 97 1012.8
20260904060150 70 141 4.0 9.0 0.00 0.45 0.00 97 1012.0
20260904055648 70 134 4.0 8.0 0.00 0.45 0.00 97 1012.1
20260904055149 69 129 5.0 10.0 0.00 0.45 0.00 97 1012.5
20260904054648 69 128 5.0 10.0 0.01 0.45 0.00 97 1012.6
20260904054149 69 131 5.0 10.0 0.01 0.45 0.00 97 1012.1
20260904053643 69 136 5.0 10.0 0.04 0.45 0.00 97 1012.0
20260904053142 69 136 6.0 10.0 0.08 0.45 0.00 97 1011.7
20260904052642 69 113 6.0 11.0 0.10 0.45 0.00 97 1011.6
20260904052141 69 132 7.0 12.0 0.13 0.45 0.00 97 1012.3
20260904051640 69 134 6.0 12.0 0.14 0.45 0.00 97 1012.4
20260904051141 69 140 7.0 13.0 0.14 0.45 0.00 97 1012.6
20260904050635 69 126 8.0 13.0 0.14 0.45 0.00 97 1012.9
20260904050134 69 132 8.0 13.0 0.14 0.45 0.00 97 1013.0
20260904045634 69 132 7.0 12.0 0.14 0.45 0.45 97 1013.2
20260904045135 69 134 7.0 12.0 0.14 0.45 0.45 97 1013.4
20260904044634 69 153 6.0 12.0 0.13 0.44 0.44 97 1013.5
20260904044135 70 136 3.0 9.0 0.13 0.44 0.44 97 1014.1
20260904043636 70 65 4.0 8.0 0.06 0.37 0.37 96 1015.2
20260904043632 69 98 3.0 8.0 0.08 0.39 0.41 97 1014.7
20260904042901 70 300 3.0 7.0 0.04 0.35 0.35 96 1015.4
20260904042128 70 37 3.0 7.0 0.01 0.32 0.32 96 1015.2
20260904041627 70 355 3.0 6.0 0.00 0.31 0.31 96 1014.9
20260904041128 70 41 2.0 4.0 0.00 0.31 0.31 96 1013.9
20260904040621 70 55 2.0 5.0 0.00 0.31 0.31 96 1013.8
20260904040118 70 39 2.0 5.0 0.03 0.31 0.31 96 1013.7
20260904035618 70 17 1.0 4.0 0.04 0.31 0.31 96 1013.6
20260904035118 70 344 2.0 7.0 0.05 0.31 0.31 96 1013.7
20260904034618 70 325 3.0 7.0 0.06 0.31 0.31 96 1013.9
20260904034121 70 316 2.0 6.0 0.07 0.31 0.31 96 1014.0
20260904033616 70 117 1.0 4.0 0.10 0.31 0.31 96 1013.8
20260904033114 70 117 2.0 6.0 0.11 0.31 0.31 96 1013.5
20260904032615 70 117 4.0 13.0 0.11 0.31 0.31 96 1013.1
20260904032114 70 103 7.0 13.0 0.11 0.31 0.31 96 1012.9
20260904031616 70 113 9.0 15.0 0.11 0.31 0.31 96 1012.6
20260904031115 70 115 10.0 16.0 0.11 0.31 0.31 95 1012.4
20260904030615 70 128 10.0 16.0 0.11 0.31 0.31 95 1012.6
20260904030107 71 106 7.0 16.0 0.08 0.28 0.28 95 1012.6
20260904025838 71 113 3.0 6.0 0.07 0.27 0.27 94 1014.7
20260904025104 72 65 2.0 5.0 0.05 0.25 0.25 94 1015.3
20260904024834 72 25 2.0 5.0 0.05 0.25 0.25 94 1015.6
20260904024100 72 63 2.0 5.0 0.03 0.23 0.24 94 1015.2
20260904023600 72 34 2.0 5.0 0.01 0.21 0.21 94 1015.3
20260904023058 72 5 3.0 8.0 0.00 0.20 0.20 94 1015.4
20260904022829 72 338 3.0 8.0 0.00 0.20 0.20 94 1015.2
20260904022058 72 13 2.0 5.0 0.00 0.20 0.20 94 1014.8
20260904021558 72 37 1.0 4.0 0.00 0.20 0.20 94 1014.5
20260904021058 72 96 2.0 6.0 0.00 0.20 0.20 94 1014.3
20260904020600 72 100 4.0 6.0 0.00 0.20 0.20 94 1014.1
20260904020053 72 106 4.0 8.0 0.00 0.20 0.20 94 1013.8
20260904015553 72 96 4.0 8.0 0.00 0.20 0.20 94 1013.8
20260904015054 72 96 4.0 8.0 0.00 0.20 0.20 93 1013.7
20260904014554 72 100 4.0 8.0 0.00 0.20 0.20 93 1013.7
20260904014054 72 110 3.0 6.0 0.00 0.20 0.20 93 1013.6
20260904013556 72 90 1.0 4.0 0.00 0.20 0.20 93 1013.6
20260904013054 72 40 2.0 4.0 0.00 0.20 0.20 92 1013.8
20260904013050 72 40 2.0 3.0 0.00 0.20 0.20 93 1014.0
20260904012050 73 62 2.0 5.0 0.00 0.20 0.20 92 1013.5
20260904011822 73 45 2.0 7.0 0.00 0.20 0.20 92 1013.3
20260904011049 73 67 2.0 8.0 0.00 0.20 0.20 92 1013.2
20260904010552 73 25 3.0 8.0 0.00 0.20 0.20 92 1013.0
20260904010045 73 52 3.0 8.0 0.00 0.20 0.20 92 1012.9
20260904005546 73 74 3.0 8.0 0.00 0.20 0.20 91 1012.8
20260904005059 73 65 3.0 8.0 0.00 0.20 0.20 91 1012.7
20260904005055 73 89 4.0 8.0 0.00 0.20 0.20 91 1012.7
20260904004546 73 65 3.0 8.0 0.00 0.20 0.20 91 1012.7
20260904004321 73 57 3.0 5.0 0.00 0.20 0.20 91 1013.0
20260904003547 73 0 2.0 5.0 0.00 0.20 0.20 90 1012.9
20260904003047 74 57 2.0 5.0 0.00 0.20 0.20 90 1012.9
20260904002825 74 60 2.0 6.0 0.00 0.20 0.20 90 1013.1
20260904002043 74 20 3.0 7.0 0.00 0.20 0.20 90 1013.1
20260904001814 74 80 3.0 7.0 0.00 0.20 0.20 90 1012.8
20260904001041 74 41 4.0 8.0 0.00 0.20 0.20 89 1012.8
20260904000544 74 92 3.0 8.0 0.00 0.20 0.20 89 1012.7
20260904000042 75 84 2.0 5.0 0.00 0.20 0.20 89 1012.9
20260903235539 75 13 3.0 7.0 0.00 0.20 0.20 88 1012.9
20260903235040 75 68 4.0 9.0 0.00 0.20 0.20 88 1012.9
20260903234811 75 94 3.0 9.0 0.00 0.20 0.20 88 1012.9
20260903234041 76 40 3.0 7.0 0.00 0.20 0.20 87 1013.1
20260903233540 76 45 3.0 9.0 0.00 0.20 0.20 87 1012.8
20260903233040 76 65 4.0 9.0 0.00 0.20 0.20 87 1012.7
20260903232538 76 56 6.0 12.0 0.00 0.20 0.20 87 1012.7
20260903232036 77 51 5.0 12.0 0.00 0.20 0.20 87 1013.1
20260903231537 78 0 4.0 10.0 0.00 0.20 0.20 88 1013.0
20260903231037 78 0 3.0 7.0 0.00 0.20 0.20 87 1012.9
20260903230536 78 48 2.0 5.0 0.00 0.20 0.20 87 1012.7
20260903230037 78 54 3.0 5.0 0.00 0.20 0.20 87 1012.6
20260903225536 78 17 2.0 5.0 0.00 0.20 0.20 87 1012.9
20260903225036 78 15 2.0 4.0 0.00 0.20 0.20 86 1012.8
20260903224530 78 134 2.0 5.0 0.00 0.20 0.20 86 1012.5
20260903224301 78 49 3.0 7.0 0.00 0.20 0.20 86 1012.3
20260903223528 78 11 3.0 7.0 0.00 0.20 0.20 85 1012.5
20260903223256 78 38 3.0 7.0 0.00 0.20 0.20 85 1012.5
20260903222525 78 5 3.0 6.0 0.00 0.20 0.20 84 1012.6
20260903222027 78 55 3.0 6.0 0.00 0.20 0.20 84 1012.3
20260903221519 78 81 2.0 6.0 0.00 0.20 0.20 83 1012.4
20260903221019 79 82 3.0 6.0 0.00 0.20 0.20 83 1012.4
20260903220520 79 15 2.0 5.0 0.00 0.20 0.20 83 1012.5
20260903220252 79 40 2.0 5.0 0.00 0.20 0.20 83 1012.5
20260903215518 79 5 2.0 5.0 0.00 0.20 0.20 82 1012.6
20260903215018 80 20 1.0 4.0 0.00 0.20 0.20 81 1012.5
20260903214511 80 20 2.0 4.0 0.00 0.20 0.20 81 1012.5
20260903214011 80 27 1.0 4.0 0.00 0.20 0.20 80 1012.4
20260903213508 80 26 1.0 3.0 0.00 0.20 0.20 79 1012.4
20260903213006 80 66 1.0 4.0 0.00 0.20 0.20 78 1012.3
20260903212506 80 67 2.0 5.0 0.00 0.20 0.20 78 1012.3
20260903212002 80 79 2.0 5.0 0.00 0.20 0.20 79 1012.2
20260903211500 80 96 2.0 6.0 0.00 0.20 0.20 79 1012.2
20260903210958 80 88 3.0 5.0 0.00 0.20 0.20 79 1012.2
20260903210457 80 76 3.0 7.0 0.00 0.20 0.20 78 1012.2
20260903210227 80 83 3.0 7.0 0.00 0.20 0.20 78 1012.3
20260903205456 80 44 2.0 6.0 0.00 0.20 0.20 77 1012.2
20260903204952 81 37 2.0 6.0 0.00 0.20 0.20 76 1012.4
20260903204452 81 38 2.0 5.0 0.00 0.20 0.20 76 1012.4
20260903203953 81 311 2.0 4.0 0.00 0.20 0.20 77 1012.5
20260903203452 81 57 1.0 4.0 0.00 0.20 0.20 76 1012.6
20260903202952 80 59 2.0 4.0 0.00 0.20 0.20 78 1012.7
20260903202449 80 63 2.0 3.0 0.00 0.20 0.20 79 1012.8
20260903201950 80 65 1.0 3.0 0.00 0.20 0.20 79 1012.8
20260903201718 80 55 1.0 4.0 0.00 0.20 0.20 78 1012.8
20260903200949 79 175 2.0 5.0 0.00 0.20 0.20 79 1012.7
20260903200945 79 76 1.0 4.0 0.00 0.20 0.20 79 1012.7
20260903195945 79 182 1.0 5.0 0.00 0.20 0.20 80 1012.7
20260903195444 79 142 1.0 2.0 0.00 0.20 0.20 79 1012.8
20260903194943 79 135 3.0 7.0 0.00 0.20 0.20 80 1012.7
20260903194439 79 134 4.0 8.0 0.00 0.20 0.20 81 1012.8
20260903193940 79 185 4.0 9.0 0.00 0.20 0.20 81 1012.9
20260903193440 79 196 4.0 9.0 0.00 0.20 0.20 81 1013.0
20260903192708 79 193 4.0 9.0 0.00 0.20 0.20 81 1012.8
20260903191938 79 175 4.0 9.0 0.00 0.20 0.20 81 1012.9
20260903191436 79 155 4.0 8.0 0.00 0.20 0.20 81 1013.0
20260903190934 79 197 4.0 8.0 0.00 0.20 0.20 83 1013.1
20260903190702 78 184 3.0 7.0 0.00 0.20 0.20 85 1013.2
20260903185931 77 187 3.0 9.0 0.00 0.20 0.20 86 1013.1
20260903185431 77 170 3.0 9.0 0.00 0.20 0.20 86 1013.2
20260903184930 77 142 2.0 5.0 0.00 0.20 0.20 87 1013.2
20260903184429 76 136 3.0 6.0 0.00 0.20 0.20 86 1013.2
20260903184201 76 171 3.0 8.0 0.00 0.20 0.20 87 1013.3
20260903183431 76 149 3.0 8.0 0.00 0.20 0.20 87 1013.2
20260903182927 77 140 2.0 8.0 0.00 0.20 0.20 87 1013.5
20260903182429 76 138 3.0 6.0 0.00 0.20 0.20 88 1013.4
20260903182425 76 150 3.0 8.0 0.00 0.20 0.20 87 1013.4
20260903182039 76 87 3.0 7.0 0.00 0.20 0.20 88 1013.4
20260903180922 76 95 3.0 7.0 0.00 0.20 0.20 87 1013.5
20260903180652 76 79 2.0 4.0 0.00 0.20 0.20 88 1013.8
20260903175921 75 12 2.0 5.0 0.00 0.20 0.20 90 1013.9
20260903175419 74 67 2.0 5.0 0.00 0.20 0.20 91 1013.7
20260903174920 74 61 2.0 4.0 0.00 0.20 0.20 92 1013.8
20260903174413 74 69 1.0 3.0 0.00 0.20 0.20 93 1013.7
20260903173913 74 67 1.0 3.0 0.00 0.20 0.20 94 1013.5
20260903173409 73 67 2.0 7.0 0.00 0.20 0.20 95 1013.7
20260903172907 73 69 3.0 7.0 0.00 0.20 0.20 95 1013.5
20260903172408 73 99 2.0 6.0 0.00 0.20 0.20 95 1013.3
20260903171904 73 102 2.0 6.0 0.00 0.20 0.20 95 1013.4
20260903171404 72 56 3.0 7.0 0.00 0.20 0.20 96 1013.5
20260903170904 72 107 5.0 9.0 0.00 0.20 0.20 97 1012.9
20260903170404 71 98 4.0 9.0 0.00 0.20 0.20 97 1012.5
20260903165901 71 92 3.0 7.0 0.00 0.20 0.20 97 1012.3
20260903165402 71 68 3.0 6.0 0.01 0.20 0.20 97 1012.5
20260903164859 71 95 3.0 6.0 0.01 0.20 0.20 96 1012.5
20260903164400 71 83 2.0 5.0 0.01 0.20 0.20 96 1012.6
20260903163859 71 77 2.0 6.0 0.01 0.20 0.20 97 1012.8
20260903163359 71 79 2.0 6.0 0.04 0.20 0.20 96 1012.8
20260903162900 71 63 3.0 9.0 0.05 0.20 0.20 96 1012.9
20260903162400 70 39 4.0 9.0 0.05 0.20 0.20 96 1013.2
20260903162132 71 5 4.0 9.0 0.05 0.20 0.20 96 1013.2
20260903161625 71 49 4.0 10.0 0.05 0.20 0.20 96 1013.2
20260903160853 71 9 3.0 10.0 0.05 0.20 0.20 96 1013.0
20260903160353 71 60 2.0 4.0 0.05 0.20 0.20 96 1013.1
20260903155859 70 24 2.0 5.0 0.05 0.19 0.19 96 1013.3
20260903155853 70 55 2.0 5.0 0.06 0.20 0.20 96 1013.2
20260903154853 70 10 2.0 5.0 0.05 0.19 0.19 96 1013.5
20260903154347 70 334 2.0 7.0 0.05 0.19 0.19 96 1013.5
20260903153847 70 298 2.0 7.0 0.07 0.19 0.19 96 1013.5
20260903153348 70 9 2.0 4.0 0.05 0.16 0.17 95 1013.6
20260903153120 70 321 3.0 7.0 0.04 0.15 0.15 95 1013.7
20260903152618 70 313 3.0 7.0 0.04 0.15 0.15 95 1013.6
20260903151848 71 319 3.0 6.0 0.04 0.15 0.15 95 1013.7
20260903151348 71 19 3.0 6.0 0.11 0.15 0.15 95 1013.5
20260903150848 71 324 2.0 6.0 0.15 0.15 0.15 95 1013.2
20260903150342 71 23 1.0 3.0 0.15 0.15 0.15 95 1012.9
20260903145840 71 27 1.0 4.0 0.14 0.14 0.14 94 1012.8
20260903145339 71 22 2.0 4.0 0.14 0.14 0.14 94 1012.6
20260903144839 71 25 2.0 5.0 0.14 0.14 0.14 94 1012.5
20260903144339 71 15 3.0 6.0 0.14 0.14 0.14 94 1012.7
20260903143838 72 33 3.0 6.0 0.12 0.12 0.13 93 1012.9
20260903143336 72 36 2.0 6.0 0.11 0.11 0.11 93 1012.5
20260903142833 72 69 2.0 4.0 0.11 0.11 0.11 93 1012.3
20260903142605 73 89 2.0 4.0 0.11 0.11 0.11 93 1012.4
20260903142106 73 90 2.0 6.0 0.11 0.11 0.11 93 1012.6
20260903141947 73 99 2.0 6.0 0.04 0.04 0.06 92 1012.8
20260903141446 73 115 1.0 4.0 0.00 0.00 0.00 93 1012.8
20260903140334 73 126 2.0 4.0 0.00 0.00 0.00 93 1012.7
20260903135829 72 117 3.0 7.0 0.00 0.00 0.00 93 1012.9